Location: Bonn
(50.7330°N, 7.1000°E)
Time: 07:25:45
(UTC+02:00)

Iridium 67 - Visible Passes

Search period start: 24 April 2017 00:00
Search period end: 04 May 2017 00:00
Orbit: 776 x 779 km, 86.4° (Epoch: 22 April)

Date Brightness Start Highest point End Pass type
(mag) Time Alt. Az. Time Alt. Az. Time Alt. Az.
24 Apr 7.1 03:01:54 16° SE 03:05:06 30° E 03:09:35 10° NNE visible
24 Apr 6.0 04:42:22 20° SW 04:45:39 44° W 04:50:39 10° N visible
25 Apr 7.8 02:28:34 11° ESE 02:31:53 18° ENE 02:35:21 10° NE visible
25 Apr 5.5 04:09:03 26° SSW 04:12:00 73° W 04:17:15 10° N visible
26 Apr 8.1 01:57:36 10° E 01:58:47 11° ENE 01:59:59 10° ENE visible
26 Apr 5.7 03:35:42 28° SSE 03:38:28 67° E 03:43:40 10° N visible
26 Apr 7.0 05:16:11 11° WSW 05:19:44 20° WNW 05:23:35 10° NNW visible
27 Apr 6.6 03:02:21 23° SE 03:05:04 40° E 03:09:56 10° NNE visible
27 Apr 6.4 04:42:50 18° SW 04:45:54 32° WNW 04:50:35 10° NNW visible
28 Apr 7.3 02:29:00 16° ESE 02:31:47 24° E 02:35:56 10° NNE visible
28 Apr 5.8 04:09:28 27° SSW 04:12:10 54° W 04:17:18 10° N visible
29 Apr 7.9 01:55:46 10° ESE 01:58:37 15° ENE 02:01:29 10° NE visible
29 Apr 5.5 03:36:06 32° S 03:38:34 89° WNW 03:43:50 10° N visible
29 Apr 7.4 05:17:07 10° WSW 05:20:07 15° WNW 05:23:08 10° NNW visible
30 Apr 6.0 03:02:43 30° SSE 03:05:05 55° E 03:10:12 10° NNE visible
30 Apr 6.8 04:43:12 15° WSW 04:46:11 24° WNW 04:50:25 10° NNW visible
01 May 6.8 02:29:21 22° SE 02:31:44 33° E 02:36:22 10° NNE visible
01 May 6.2 04:09:48 24° SW 04:12:22 39° WNW 04:17:17 10° N visible
02 May 7.5 01:55:56 14° ESE 01:58:30 20° ENE 02:02:14 10° NNE visible
02 May 5.6 03:36:25 33° SSW 03:38:42 66° W 03:43:55 10° N visible
02 May 7.6 05:19:01 10° W 05:20:32 11° WNW 05:22:04 10° NW visible
03 May 7.9 01:23:25 10° E 01:25:22 12° ENE 01:27:20 10° NE visible
03 May 5.6 03:03:00 36° SSE 03:05:09 75° E 03:10:23 10° N visible
03 May 7.2 04:43:29 12° WSW 04:46:31 18° WNW 04:50:07 10° NNW visible
